x

9439040 - Astoria, Or (asto3) Weather Station

4:30am - Tue 1st Sep 2015 All times are PDT. -7 hours from GMT.

  • Wind
    5mph, 8mph gusts
  • Sea Temp 66°f
  • Air Temp 63°f
  • Sea Pressure 1013.4mb
  • 9439040 - Astoria, Or
  • 9439040 - Astoria, Or

More Historic Weather Station data

Upgrade to MSW Pro to gain access to the past 30 days of data for over 8000 Wavebouys and Weather Stations around the globe.

Join Pro

Comparision Forecast

View Surf forecast
   
Tue 09/01 4:30am 5 8 mph 1013.4mb 66f 63f
4:24am 6 8 mph 1013.4mb 66f 63f
4:18am 7 10 mph 1013.5mb 66f 63f
4:12am 7 10 mph 1013.5mb 66f 63f
4:06am 6 10 mph 1013.5mb 66f 63f
4:00am 6 9 mph 1013.5mb 66f 63f
3:54am 5 8 mph 1013.5mb 66f 63f
3:48am 6 7 mph 1013.6mb 66f 63f
3:42am 6 10 mph 1013.6mb 66f 63f
3:36am 5 8 mph 1013.5mb 66f 63f
3:30am 6 10 mph - - 63f
3:24am 8 11 mph - - 63f
3:18am 6 10 mph 1013.6mb 67f 63f
3:12am 7 10 mph 1013.7mb 67f 63f
3:06am 6 9 mph 1013.7mb 67f 63f
3:00am 6 10 mph 1013.7mb 67f 63f
2:54am 8 9 mph 1013.8mb 68f 63f
2:48am  -  mph 1013.8mb 68f 63f
2:42am  -  mph 1013.8mb 68f 63f
2:36am  -  mph 1013.8mb 68f 63f
2:30am 8 11 mph 1013.8mb 68f 63f
2:24am 8 10 mph 1013.9mb 68f 63f
2:18am 8 10 mph 1013.9mb 68f 63f
2:12am 8 10 mph 1013.8mb 68f 63f
2:06am 9 13 mph 1013.8mb 68f 63f
2:00am 8 15 mph 1013.8mb 68f 63f
1:54am 8 11 mph 1013.8mb 68f 63f
1:48am 8 10 mph 1013.8mb 69f 63f
1:42am 8 11 mph 1013.9mb 69f 63f
1:36am 8 11 mph 1013.9mb 69f 63f
1:30am 7 10 mph 1014mb 68f 62f
1:24am 7 11 mph 1014mb 68f 63f
1:18am 7 13 mph - 68f 63f
1:12am 8 13 mph - 68f 63f
1:06am 8 11 mph - 68f 63f
1:00am 8 11 mph 1014mb 69f 63f
12:54am 7 10 mph 1014mb 69f 62f
12:48am 7 13 mph 1014mb 69f 62f
12:42am 9 11 mph 1014mb 69f 62f
12:36am 7 10 mph 1014mb 69f 62f
12:30am 7 13 mph 1014.1mb 69f 63f
12:24am 7 10 mph 1014.1mb 69f 63f
12:18am 9 13 mph 1014.1mb 69f 63f
12:12am 10 14 mph 1014.1mb 69f 63f
12:06am 9 15 mph 1014.2mb 68f 63f
12:00am 9 13 mph - 68f 63f
Mon 08/31 11:54pm 9 13 mph - 69f 63f
11:48pm 9 15 mph 1014.3mb 68f 63f
11:42pm 10 13 mph 1014.3mb 68f 63f
11:36pm 10 14 mph 1014.4mb 68f 63f
11:30pm 9 11 mph 1014.4mb 68f 63f
11:24pm 9 14 mph 1014.5mb 69f 63f
11:18pm 7 9 mph 1014.6mb 69f 63f
11:12pm 7 9 mph 1014.5mb 68f 63f
11:06pm 6 11 mph 1014.6mb 68f 63f
11:00pm 8 10 mph 1014.6mb 68f 63f
10:54pm 9 14 mph 1014.6mb 68f 63f
10:48pm 8 11 mph 1014.6mb 68f 63f
10:42pm 9 14 mph 1014.6mb 68f 63f
10:36pm 9 13 mph 1014.6mb 68f 63f
10:30pm 9 14 mph 1014.7mb 68f 63f
10:24pm 9 13 mph 1014.6mb 68f 63f
10:18pm 8 11 mph 1014.6mb 68f 63f
10:12pm 10 14 mph 1014.7mb 68f 63f
10:06pm 8 13 mph 1014.7mb 68f 63f
10:00pm 8 11 mph 1014.8mb 68f -
9:54pm 9 11 mph 1014.8mb 68f -
9:48pm 10 15 mph 1014.8mb 68f 63f
9:42pm 8 11 mph 1014.8mb 68f 63f
9:36pm 11 15 mph 1014.8mb 68f 63f
9:30pm 8 13 mph 1014.7mb 68f 63f
9:24pm 11 15 mph 1014.7mb 68f 63f
9:18pm 11 16 mph 1014.7mb 68f 63f
9:12pm 10 15 mph 1014.7mb 68f 63f
9:06pm 9 14 mph 1014.7mb 68f 63f
9:00pm 10 16 mph - 67f 63f
8:54pm 9 17 mph - 67f 63f
8:48pm 9 13 mph 1014.6mb 67f 63f
8:42pm 9 14 mph 1014.6mb 67f 64f
8:36pm 10 13 mph 1014.6mb 67f 64f
8:30pm 7 11 mph 1014.6mb 67f 64f
8:24pm 9 13 mph 1014.5mb 67f 64f
8:18pm 9 15 mph 1014.4mb 67f 64f
8:12pm 9 14 mph 1014.4mb 66f 64f
8:06pm 8 15 mph 1014.4mb 66f 64f
8:00pm 7 10 mph 1014.5mb 66f 64f
7:54pm 8 11 mph 1014.5mb 66f 64f
7:48pm 8 13 mph 1014.6mb 66f 64f
7:42pm 8 11 mph 1014.5mb 66f 64f
7:36pm 7 11 mph 1014.5mb 66f 64f
7:30pm 8 14 mph 1014.5mb 66f 64f
7:24pm 8 14 mph 1014.5mb 66f 64f
7:18pm 7 14 mph - 66f 64f
7:12pm 9 14 mph - 66f 64f
7:06pm 8 13 mph - 66f 64f
7:00pm 7 11 mph 1014.7mb 66f 64f
6:54pm 7 10 mph 1014.7mb 66f 64f
6:48pm 9 11 mph 1014.9mb 66f 64f
6:42pm 10 14 mph 1014.9mb 66f 65f
6:36pm 10 17 mph 1015mb 66f 65f
6:30pm 11 17 mph 1015.1mb 66f -
6:24pm 7 11 mph 1015.1mb 65f -
6:18pm 8 14 mph 1015.1mb 65f -
6:12pm 8 15 mph 1015.1mb 65f -
6:06pm 9 15 mph 1015.2mb 65f -
6:00pm 11 15 mph 1015.2mb 65f 65f
5:54pm 10 18 mph 1015.2mb 66f 65f
5:48pm 14 20 mph 1015.3mb 66f 65f
5:42pm 16 23 mph 1015.3mb 66f 65f
5:36pm 10 20 mph 1015.3mb 66f 65f
5:30pm 14 16 mph 1015.3mb 66f 65f
5:24pm 14 18 mph 1015.3mb 66f 65f
5:18pm 17 21 mph 1015.3mb 66f 65f
5:12pm 14 17 mph 1015.3mb 66f 65f
5:06pm 14 18 mph 1015.3mb 65f 65f
5:00pm 14 18 mph 1015.4mb 65f 65f
4:54pm 13 18 mph 1015.4mb 65f 65f
4:48pm 13 16 mph 1015.5mb 65f 66f
4:42pm 13 16 mph 1015.6mb 66f 66f
4:36pm 11 21 mph 1015.6mb 66f 66f
4:00pm 10 16 mph 1015.7mb 66f 67f
3:54pm 14 17 mph 1015.8mb 65f 66f
3:48pm 11 15 mph 1015.8mb 65f 66f
3:42pm 10 14 mph 1015.8mb 66f 66f
3:36pm 11 17 mph 1015.9mb 66f 66f
3:30pm 14 18 mph 1016mb 66f 66f
3:24pm 8 17 mph 1015.9mb 66f 67f
3:18pm 13 18 mph 1015.9mb 66f 67f
3:12pm 13 18 mph 1015.9mb 67f 66f
3:06pm 11 16 mph 1016mb 67f 66f
3:00pm 9 17 mph 1016.1mb 67f 66f
2:54pm 11 17 mph 1016.2mb 67f 66f
2:48pm 13 17 mph 1016.2mb 67f 65f
2:42pm 11 20 mph 1016.2mb 67f 65f
2:36pm 15 21 mph 1016.3mb 67f 65f
2:30pm 13 17 mph 1016.3mb 67f 65f
2:24pm 14 21 mph 1016.4mb 67f 65f
2:18pm 13 20 mph 1016.4mb 67f 66f
2:12pm 14 21 mph 1016.6mb 68f 65f
2:06pm 16 21 mph 1016.6mb 68f 65f
2:00pm 15 23 mph 1016.6mb 68f 65f
1:54pm 15 25 mph 1016.6mb 68f 65f
1:48pm 15 24 mph 1016.6mb 68f 65f
1:42pm 16 23 mph 1016.6mb 68f 65f
1:36pm 13 26 mph 1016.6mb 68f 65f
1:30pm 20 23 mph 1016.6mb 68f 65f
1:24pm 18 23 mph 1016.7mb 68f 65f
1:18pm 20 23 mph 1016.6mb 68f 65f
1:12pm 14 20 mph 1016.6mb 68f 65f
1:06pm 10 15 mph 1016.6mb 68f 65f
1:00pm 13 18 mph 1016.6mb 68f 65f
12:54pm 10 14 mph 1016.7mb 69f 64f
12:48pm 9 15 mph 1016.7mb 68f 64f
12:42pm 10 18 mph 1016.7mb 68f 64f
12:36pm 15 20 mph 1016.7mb 68f 64f
12:30pm 10 17 mph 1016.7mb 68f 64f
12:24pm 14 21 mph 1016.7mb 68f 63f
12:18pm 11 18 mph 1016.6mb 68f 63f
12:12pm 14 17 mph 1016.6mb 68f 63f
12:06pm 14 18 mph 1016.7mb 68f 64f
12:00pm 11 17 mph 1016.6mb 68f 65f
11:54am 14 22 mph 1016.6mb 68f 65f
11:48am 18 23 mph 1016.6mb 68f 65f
11:42am 13 22 mph 1016.5mb 68f 65f
11:36am 14 22 mph 1016.6mb 68f 65f
11:30am 13 17 mph 1016.6mb 68f 64f
11:24am 14 18 mph 1016.7mb 68f 64f
11:18am 14 20 mph 1016.8mb 68f 64f
11:12am 11 16 mph 1016.7mb 68f 64f
11:06am 11 20 mph 1016.7mb 68f 64f
11:00am 11 22 mph 1016.9mb 68f 63f
10:54am 14 18 mph 1016.8mb 68f 63f
10:48am 15 20 mph 1016.8mb 68f 63f
10:42am 13 17 mph 1016.8mb 68f 64f
10:36am 9 15 mph 1016.7mb 68f 64f
10:30am 13 18 mph 1016.7mb 68f 64f
10:24am 10 16 mph 1016.8mb 68f 64f
10:18am 11 16 mph 1016.8mb 68f 64f
10:12am 14 16 mph 1016.7mb 68f 63f
10:06am 11 14 mph 1016.6mb 68f 63f
10:00am 9 14 mph 1016.6mb 68f 63f
9:54am 10 15 mph 1016.6mb 68f 63f
9:48am 9 17 mph 1016.5mb 68f 63f
9:42am 11 15 mph 1016.4mb 68f 63f
9:36am 13 16 mph 1016.4mb 68f 63f
9:30am 10 15 mph 1016.5mb 68f 62f
9:24am 9 13 mph 1016.4mb 68f 62f
9:18am 8 11 mph 1016.4mb 68f 62f
9:12am 10 13 mph 1016.4mb 68f 62f
9:06am 9 11 mph 1016.4mb 68f 61f
9:00am 9 11 mph 1016.4mb 67f 61f
4:54am 10 18 mph 1016mb 67f 62f
4:48am 13 24 mph 1016.1mb 67f 62f
3:54am 6 9 mph 1016.2mb 66f 62f
3:48am 8 10 mph 1016.2mb 66f 62f
2:54am 5 8 mph 1016.7mb 65f 61f
2:48am 6 8 mph 1016.8mb 65f 62f